TimeMDT,TemperatureF,Dew PointF,Humidity,Sea Level PressureIn,VisibilityMPH,Wind Direction,Wind SpeedMPH,Gust SpeedMPH,PrecipitationIn,Events,Conditions,WindDirDegrees,DateUTC
12:15 AM,75.4,59.0,57,30.06,10.0,SE,5.8,-,N/A,,Clear,140,2013-09-04 06:15:00
12:35 AM,73.8,59.2,60,30.05,10.0,SSE,6.9,-,N/A,,Clear,160,2013-09-04 06:35:00
12:55 AM,73.0,59.0,61,30.04,10.0,South,8.1,-,N/A,,Clear,170,2013-09-04 06:55:00
1:15 AM,73.4,59.0,61,30.05,10.0,Calm,Calm,-,N/A,,Clear,0,2013-09-04 07:15:00
1:35 AM,72.9,59.0,62,30.04,10.0,SSE,8.1,-,N/A,,Clear,150,2013-09-04 07:35:00
1:55 AM,72.3,59.0,63,30.05,10.0,SE,6.9,-,N/A,,Clear,130,2013-09-04 07:55:00
2:15 AM,72.1,59.2,64,30.05,10.0,SE,4.6,-,N/A,,Clear,140,2013-09-04 08:15:00
2:35 AM,71.1,59.0,66,30.05,10.0,SE,4.6,-,N/A,,Clear,130,2013-09-04 08:35:00
2:55 AM,70.3,58.8,67,30.05,10.0,East,3.5,-,N/A,,Clear,100,2013-09-04 08:55:00
3:15 AM,70.3,58.6,66,30.05,10.0,SE,9.2,-,N/A,,Clear,130,2013-09-04 09:15:00
3:35 AM,69.3,58.5,68,30.05,10.0,SE,4.6,-,N/A,,Clear,130,2013-09-04 09:35:00
3:55 AM,69.1,58.1,68,30.05,10.0,ESE,3.5,-,N/A,,Clear,120,2013-09-04 09:55:00
4:15 AM,68.4,57.6,68,30.05,10.0,Calm,Calm,-,N/A,,Clear,0,2013-09-04 10:15:00
4:35 AM,68.9,57.4,67,30.05,10.0,Calm,Calm,-,N/A,,Clear,0,2013-09-04 10:35:00
4:55 AM,67.8,57.0,68,30.06,10.0,Calm,Calm,-,N/A,,Clear,0,2013-09-04 10:55:00
5:15 AM,67.8,57.6,70,30.06,10.0,Calm,Calm,-,N/A,,Clear,0,2013-09-04 11:15:00
5:35 AM,67.6,57.9,71,30.07,10.0,South,3.5,-,N/A,,Clear,190,2013-09-04 11:35:00
5:55 AM,66.2,57.6,74,30.07,10.0,Calm,Calm,-,N/A,,Clear,0,2013-09-04 11:55:00
6:15 AM,65.7,57.4,75,30.07,10.0,Calm,Calm,-,N/A,,Clear,0,2013-09-04 12:15:00
6:35 AM,64.8,57.2,76,30.08,10.0,Calm,Calm,-,N/A,,Clear,0,2013-09-04 12:35:00
6:55 AM,64.6,57.4,77,30.08,10.0,Calm,Calm,-,N/A,,Clear,0,2013-09-04 12:55:00
7:15 AM,65.3,57.7,76,30.08,10.0,Calm,Calm,-,N/A,,Clear,0,2013-09-04 13:15:00
7:35 AM,68.2,57.9,70,30.09,10.0,Calm,Calm,-,N/A,,Clear,0,2013-09-04 13:35:00
7:55 AM,70.0,57.9,65,30.09,10.0,Calm,Calm,-,N/A,,Clear,0,2013-09-04 13:55:00
8:15 AM,70.3,57.7,64,30.09,10.0,Calm,Calm,-,N/A,,Scattered Clouds,0,2013-09-04 14:15:00
8:35 AM,70.9,57.9,63,30.10,10.0,Calm,Calm,-,N/A,,Scattered Clouds,0,2013-09-04 14:35:00
8:55 AM,72.7,58.5,61,30.10,10.0,Calm,Calm,-,N/A,,Scattered Clouds,0,2013-09-04 14:55:00
9:15 AM,74.1,59.0,59,30.11,10.0,Calm,Calm,-,N/A,,Clear,0,2013-09-04 15:15:00
9:35 AM,74.3,59.5,60,30.11,10.0,Calm,Calm,-,N/A,,Clear,0,2013-09-04 15:35:00
9:55 AM,77.2,59.5,54,30.11,10.0,Calm,Calm,-,N/A,,Clear,0,2013-09-04 15:55:00
10:15 AM,80.6,59.4,48,30.13,10.0,East,4.6,-,N/A,,Clear,100,2013-09-04 16:15:00
10:35 AM,82.2,59.0,45,30.13,10.0,East,6.9,-,N/A,,Clear,80,2013-09-04 16:35:00
10:55 AM,83.8,59.0,43,30.13,10.0,SE,5.8,-,N/A,,Clear,130,2013-09-04 16:55:00
11:15 AM,84.9,58.5,41,30.13,10.0,East,6.9,-,N/A,,Clear,100,2013-09-04 17:15:00
11:35 AM,86.5,60.1,41,30.13,10.0,ESE,9.2,-,N/A,,Clear,110,2013-09-04 17:35:00
11:55 AM,88.9,59.0,36,30.13,10.0,ESE,8.1,-,N/A,,Clear,110,2013-09-04 17:55:00
12:15 PM,89.4,59.2,36,30.11,10.0,ESE,8.1,-,N/A,,Clear,110,2013-09-04 18:15:00
12:35 PM,91.4,57.9,32,30.11,10.0,SE,9.2,17.3,N/A,,Clear,140,2013-09-04 18:35:00
12:55 PM,92.3,57.2,31,30.11,10.0,ESE,9.2,-,N/A,,Clear,120,2013-09-04 18:55:00
1:15 PM,93.0,57.4,30,30.11,10.0,SE,10.4,-,N/A,,Clear,140,2013-09-04 19:15:00
1:35 PM,94.1,57.2,29,30.10,10.0,ESE,10.4,16.1,N/A,,Clear,120,2013-09-04 19:35:00
1:55 PM,95.2,56.5,27,30.10,10.0,SSE,8.1,-,N/A,,Clear,150,2013-09-04 19:55:00
2:15 PM,95.4,55.9,27,30.09,10.0,SSE,10.4,-,N/A,,Clear,150,2013-09-04 20:15:00
2:35 PM,95.0,55.8,27,30.09,10.0,SSE,11.5,-,N/A,,Clear,150,2013-09-04 20:35:00
2:55 PM,96.1,55.0,25,30.08,10.0,SSE,10.4,-,N/A,,Clear,160,2013-09-04 20:55:00
3:15 PM,95.9,55.6,26,30.08,10.0,SSE,11.5,16.1,N/A,,Clear,150,2013-09-04 21:15:00
3:35 PM,96.4,54.5,24,30.08,10.0,SSE,9.2,-,N/A,,Clear,160,2013-09-04 21:35:00
3:55 PM,96.8,54.5,24,30.07,10.0,South,11.5,-,N/A,,Clear,170,2013-09-04 21:55:00
4:15 PM,97.0,54.7,24,30.06,10.0,South,9.2,-,N/A,,Clear,180,2013-09-04 22:15:00
4:35 PM,97.0,54.1,24,30.06,10.0,South,9.2,-,N/A,,Clear,170,2013-09-04 22:35:00
4:55 PM,97.2,54.5,24,30.05,10.0,South,8.1,-,N/A,,Clear,190,2013-09-04 22:55:00
5:15 PM,97.5,54.1,23,30.05,10.0,South,9.2,-,N/A,,Clear,170,2013-09-04 23:15:00
5:35 PM,97.2,53.8,23,30.05,10.0,SSE,6.9,-,N/A,,Clear,160,2013-09-04 23:35:00
5:55 PM,96.1,54.7,25,30.04,10.0,SE,6.9,-,N/A,,Clear,140,2013-09-04 23:55:00
6:15 PM,92.3,55.0,28,30.05,10.0,SE,4.6,-,N/A,,Clear,130,2013-09-05 00:15:00
6:35 PM,91.8,54.5,28,30.06,10.0,Calm,Calm,-,N/A,,Clear,0,2013-09-05 00:35:00
6:55 PM,88.0,56.5,34,30.05,10.0,East,5.8,-,N/A,,Clear,100,2013-09-05 00:55:00
7:15 PM,86.5,56.5,36,30.06,10.0,Calm,Calm,-,N/A,,Clear,0,2013-09-05 01:15:00
7:35 PM,84.4,57.9,40,30.08,10.0,ENE,4.6,-,N/A,,Clear,70,2013-09-05 01:35:00
7:55 PM,83.8,56.8,40,30.08,10.0,NE,5.8,-,N/A,,Clear,50,2013-09-05 01:55:00
8:15 PM,84.2,56.3,38,30.08,10.0,ENE,3.5,-,N/A,Thunderstorm,Clear,70,2013-09-05 02:15:00
8:35 PM,83.7,59.0,43,30.08,10.0,ENE,4.6,-,N/A,,Clear,70,2013-09-05 02:35:00
8:55 PM,83.8,57.2,40,30.09,10.0,NE,4.6,-,N/A,Thunderstorm,Clear,50,2013-09-05 02:55:00
9:15 PM,87.1,54.9,33,30.10,10.0,North,20.7,34.5,N/A,,Mostly Cloudy,360,2013-09-05 03:15:00
9:35 PM,84.4,60.1,44,30.11,10.0,NNE,6.9,-,N/A,Rain,Light Rain,30,2013-09-05 03:35:00
9:55 PM,82.9,59.7,45,30.12,10.0,WNW,17.3,25.3,N/A,,Mostly Cloudy,300,2013-09-05 03:55:00
10:15 PM,83.3,57.4,41,30.11,10.0,WNW,11.5,23.0,N/A,Rain-Thunderstorm,Light Thunderstorms and Rain,290,2013-09-05 04:15:00
10:35 PM,81.9,58.5,45,30.11,10.0,South,3.5,-,N/A,,Scattered Clouds,190,2013-09-05 04:35:00
10:55 PM,83.5,56.7,40,30.13,10.0,Calm,Calm,-,N/A,Rain-Thunderstorm,Light Thunderstorms and Rain,0,2013-09-05 04:55:00
11:15 PM,83.7,52.3,34,30.13,10.0,West,15.0,21.9,N/A,,Scattered Clouds,260,2013-09-05 05:15:00
11:35 PM,75.4,60.8,60,30.13,10.0,West,20.7,33.4,N/A,Rain,Rain,260,2013-09-05 05:35:00
11:55 PM,73.9,62.8,68,30.10,10.0,WSW,28.8,39.1,N/A,Rain,Rain,250,2013-09-05 05:55:00